一网星座-0569星 (ONEWEB-0569)

导读 | 豆包AI

ONEWEB-0569是英国OneWeb低轨宽带星座中的一颗卫星,于2023年1月10日发射入轨。它运行在1200公里的近地轨道,配备Ku和Ka波段天线,采用氙等离子体推力器,设计寿命超过7年。作为OneWeb全球卫星互联网组网的组成部分,它旨在为全球提供低时延高速宽带接入,服务航空、海事、应急通信等场景,助力实现全球无缝网络覆盖,是英国低轨卫星通信布局的重要节点。

基本信息
目录编号:
55148
目录名称:
ONEWEB-0569
国际标识:
2023-004J
轨道中心:
EARTH
卫星名称:
一网星座-0569星
卫星全名:
一网星座-0569星 (ONEWEB-0569)
卫星状态:
在轨 (已飞行1180 天)
发射日期:
2023-01-10 UTC
国别 :
英国 (GB)
星等 :
--
轨道信息
数据来源 国际轨道数据 AOE轨道数据
星历时间 2026-04-03T23:48:40+0800
11小时前
查看轨道信息
2026-03-31T21:00:00+0800
3天前
查看轨道信息
半长轴 7587.907km 7587.908km
偏心率 0.00026 0.0002544
轨道倾角 87.901° 87.901°
近地点辐角 71.569° 77.882°
升交点赤经 335.053° 335.672°
平近点角 288.573° 311.392°
近地点 1207.797km 1207.84km
远地点 1211.743km 1211.702km
周期 109.633分钟 109.633分钟
每日圈数 13.13469 13.134687
详细信息
平衡模式:
三轴稳定
覆盖范围:
全球
运营商:
一网卫星公司
运营商所在国:
英国
制造商(研发单位):
一网卫星公司
制造商所在国:
英国
使用方式:
暂无
卫星简介
OneWeb卫星网络由648颗重约125公斤的微型卫星组成,运行在1200公里的轨道上。 每颗卫星都能够提供至少每秒8千兆位的吞吐量,以使用其高吞吐量的Ku频段有效载荷为家庭和移动平台提供互联网接入。该卫星仍在工作。
2D轨道图
3D轨道图
轨道高度分析图
轨道倾角分析图
轨道综合分析图
查看轨道综合分析图